Year,Month,Day,Hour,Minute,Value (Times are PST for windgust in km/hr)
2016,10,06,00,00,3.20
2016,10,06,00,01,3.20
2016,10,06,00,02,3.20
2016,10,06,00,03,3.20
2016,10,06,00,19,1.60
2016,10,06,00,25,1.60
2016,10,06,00,26,1.60
2016,10,06,00,29,4.80
2016,10,06,00,30,4.80
2016,10,06,00,31,3.20
2016,10,06,00,32,3.20
2016,10,06,00,33,1.60
2016,10,06,00,43,3.20
2016,10,06,00,44,3.20
2016,10,06,00,45,1.60
2016,10,06,00,46,1.60
2016,10,06,00,48,1.60
2016,10,06,01,17,4.80
2016,10,06,01,18,3.20
2016,10,06,01,22,3.20
2016,10,06,01,23,3.20
2016,10,06,01,24,3.20
2016,10,06,01,25,3.20
2016,10,06,01,26,1.60
2016,10,06,01,27,1.60
2016,10,06,01,28,3.20
2016,10,06,01,29,1.60
2016,10,06,01,31,1.60
2016,10,06,01,32,3.20
2016,10,06,01,33,4.80
2016,10,06,01,34,3.20
2016,10,06,01,35,3.20
2016,10,06,01,36,4.80
2016,10,06,01,37,3.20
2016,10,06,01,38,4.80
2016,10,06,01,39,1.60
2016,10,06,01,43,1.60
2016,10,06,01,44,1.60
2016,10,06,01,45,3.20
2016,10,06,01,46,4.80
2016,10,06,01,47,3.20
2016,10,06,01,50,1.60
2016,10,06,01,56,1.60
2016,10,06,01,58,1.60
2016,10,06,01,59,1.60
2016,10,06,02,02,3.20
2016,10,06,02,03,1.60
2016,10,06,02,13,1.60
2016,10,06,02,14,1.60
2016,10,06,02,23,1.60
2016,10,06,02,24,3.20
2016,10,06,02,25,3.20
2016,10,06,02,26,3.20
2016,10,06,02,27,3.20
2016,10,06,02,28,1.60
2016,10,06,02,31,1.60
2016,10,06,03,43,4.80
2016,10,06,03,44,3.20
2016,10,06,03,45,1.60
2016,10,06,03,46,1.60
2016,10,06,03,48,1.60
2016,10,06,03,51,3.20
2016,10,06,03,52,1.60
2016,10,06,03,54,3.20
2016,10,06,03,55,3.20
2016,10,06,03,56,4.80
2016,10,06,03,57,3.20
2016,10,06,03,58,3.20
2016,10,06,03,59,1.60
2016,10,06,04,00,3.20
2016,10,06,04,01,3.20
2016,10,06,04,02,3.20
2016,10,06,04,03,4.80
2016,10,06,04,04,4.80
2016,10,06,04,05,3.20
2016,10,06,04,06,4.80
2016,10,06,04,07,4.80
2016,10,06,04,08,6.40
2016,10,06,04,09,4.80
2016,10,06,04,10,4.80
2016,10,06,04,11,3.20
2016,10,06,04,12,3.20
2016,10,06,04,13,3.20
2016,10,06,04,14,3.20
2016,10,06,04,15,3.20
2016,10,06,04,16,4.80
2016,10,06,04,17,3.20
2016,10,06,04,18,4.80
2016,10,06,04,19,3.20
2016,10,06,04,21,1.60
2016,10,06,04,22,3.20
2016,10,06,04,23,1.60
2016,10,06,04,24,1.60
2016,10,06,04,25,3.20
2016,10,06,04,26,1.60
2016,10,06,04,27,3.20
2016,10,06,04,28,3.20
2016,10,06,04,29,1.60
2016,10,06,04,30,3.20
2016,10,06,04,31,3.20
2016,10,06,04,32,3.20
2016,10,06,04,34,1.60
2016,10,06,04,35,3.20
2016,10,06,04,36,3.20
2016,10,06,04,37,4.80
2016,10,06,04,38,4.80
2016,10,06,04,39,6.40
2016,10,06,04,40,4.80
2016,10,06,04,41,4.80
2016,10,06,04,42,4.80
2016,10,06,04,43,4.80
2016,10,06,04,44,4.80
2016,10,06,04,45,4.80
2016,10,06,04,46,4.80
2016,10,06,04,47,3.20
2016,10,06,04,48,4.80
2016,10,06,04,49,4.80
2016,10,06,04,50,3.20
2016,10,06,04,51,4.80
2016,10,06,04,52,1.60
2016,10,06,04,53,4.80
2016,10,06,04,54,4.80
2016,10,06,04,55,4.80
2016,10,06,04,56,4.80
2016,10,06,04,57,3.20
2016,10,06,04,58,4.80
2016,10,06,04,59,4.80
2016,10,06,05,00,6.40
2016,10,06,05,01,4.80
2016,10,06,05,02,4.80
2016,10,06,05,03,3.20
2016,10,06,05,04,3.20
2016,10,06,05,05,4.80
2016,10,06,05,06,3.20
2016,10,06,05,07,4.80
2016,10,06,05,08,6.40
2016,10,06,05,09,4.80
2016,10,06,05,10,3.20
2016,10,06,05,11,3.20
2016,10,06,05,12,3.20
2016,10,06,05,13,1.60
2016,10,06,05,14,4.80
2016,10,06,05,15,4.80
2016,10,06,05,16,3.20
2016,10,06,05,17,4.80
2016,10,06,05,18,8.10
2016,10,06,05,19,9.60
2016,10,06,05,20,9.60
2016,10,06,05,21,6.40
2016,10,06,05,22,9.60
2016,10,06,05,23,3.20
2016,10,06,05,24,4.80
2016,10,06,05,25,4.80
2016,10,06,05,26,8.10
2016,10,06,05,27,4.80
2016,10,06,05,28,6.40
2016,10,06,05,29,3.20
2016,10,06,05,30,3.20
2016,10,06,05,31,4.80
2016,10,06,05,32,6.40
2016,10,06,05,33,9.60
2016,10,06,05,34,6.40
2016,10,06,05,35,8.10
2016,10,06,05,36,8.10
2016,10,06,05,37,3.20
2016,10,06,05,38,9.60
2016,10,06,05,39,3.20
2016,10,06,05,40,4.80
2016,10,06,05,41,3.20
2016,10,06,05,42,6.40
2016,10,06,05,43,4.80
2016,10,06,05,44,3.20
2016,10,06,05,45,3.20
2016,10,06,05,46,6.40
2016,10,06,05,47,8.10
2016,10,06,05,48,8.10
2016,10,06,05,49,6.40
2016,10,06,05,50,9.60
2016,10,06,05,51,9.60
2016,10,06,05,52,14.50
2016,10,06,05,53,14.50
2016,10,06,05,54,12.90
2016,10,06,05,55,9.60
2016,10,06,05,56,9.60
2016,10,06,05,57,9.60
2016,10,06,05,58,11.30
2016,10,06,05,59,9.60
2016,10,06,06,00,9.60
2016,10,06,06,01,9.60
2016,10,06,06,02,9.60
2016,10,06,06,03,8.10
2016,10,06,06,04,6.40
2016,10,06,06,05,8.10
2016,10,06,06,06,6.40
2016,10,06,06,07,6.40
2016,10,06,06,08,9.60
2016,10,06,06,09,6.40
2016,10,06,06,10,6.40
2016,10,06,06,11,6.40
2016,10,06,06,12,9.60
2016,10,06,06,13,8.10
2016,10,06,06,14,8.10
2016,10,06,06,15,8.10
2016,10,06,06,16,11.30
2016,10,06,06,17,11.30
2016,10,06,06,18,8.10
2016,10,06,06,19,6.40
2016,10,06,06,20,8.10
2016,10,06,06,21,6.40
2016,10,06,06,22,6.40
2016,10,06,06,23,6.40
2016,10,06,06,24,9.60
2016,10,06,06,25,4.80
2016,10,06,06,26,8.10
2016,10,06,06,27,6.40
2016,10,06,06,28,9.60
2016,10,06,06,29,6.40
2016,10,06,06,30,8.10
2016,10,06,06,31,11.30
2016,10,06,06,32,8.10
2016,10,06,06,33,9.60
2016,10,06,06,34,9.60
2016,10,06,06,35,9.60
2016,10,06,06,36,9.60
2016,10,06,06,37,9.60
2016,10,06,06,38,6.40
2016,10,06,06,39,8.10
2016,10,06,06,40,9.60
2016,10,06,06,41,11.30
2016,10,06,06,42,9.60
2016,10,06,06,43,9.60
2016,10,06,06,44,6.40
2016,10,06,06,45,6.40
2016,10,06,06,46,8.10
2016,10,06,06,47,9.60
2016,10,06,06,48,3.20
2016,10,06,06,49,6.40
2016,10,06,06,50,6.40
2016,10,06,06,51,6.40
2016,10,06,06,52,9.60
2016,10,06,06,53,11.30
2016,10,06,06,54,4.80
2016,10,06,06,55,4.80
2016,10,06,06,56,6.40
2016,10,06,06,57,8.10
2016,10,06,06,58,6.40
2016,10,06,06,59,9.60
2016,10,06,07,00,8.10
2016,10,06,07,01,4.80
2016,10,06,07,02,4.80
2016,10,06,07,03,8.10
2016,10,06,07,04,8.10
2016,10,06,07,05,8.10
2016,10,06,07,06,6.40
2016,10,06,07,07,6.40
2016,10,06,07,08,8.10
2016,10,06,07,09,4.80
2016,10,06,07,10,4.80
2016,10,06,07,11,4.80
2016,10,06,07,12,6.40
2016,10,06,07,13,8.10
2016,10,06,07,14,4.80
2016,10,06,07,15,4.80
2016,10,06,07,16,6.40
2016,10,06,07,17,4.80
2016,10,06,07,18,4.80
2016,10,06,07,19,4.80
2016,10,06,07,20,6.40
2016,10,06,07,21,4.80
2016,10,06,07,22,6.40
2016,10,06,07,23,3.20
2016,10,06,07,24,4.80
2016,10,06,07,25,3.20
2016,10,06,07,26,4.80
2016,10,06,07,27,3.20
2016,10,06,07,28,4.80
2016,10,06,07,29,6.40
2016,10,06,07,30,4.80
2016,10,06,07,31,3.20
2016,10,06,07,32,4.80
2016,10,06,07,33,3.20
2016,10,06,07,34,3.20
2016,10,06,07,35,4.80
2016,10,06,07,36,4.80
2016,10,06,07,37,4.80
2016,10,06,07,38,3.20
2016,10,06,07,39,4.80
2016,10,06,07,40,3.20
2016,10,06,07,41,3.20
2016,10,06,07,42,3.20
2016,10,06,07,43,1.60
2016,10,06,07,44,1.60
2016,10,06,07,45,1.60
2016,10,06,07,46,1.60
2016,10,06,07,47,3.20
2016,10,06,07,48,3.20
2016,10,06,07,49,3.20
2016,10,06,07,50,1.60
2016,10,06,07,51,3.20
2016,10,06,07,53,3.20
2016,10,06,07,54,3.20
2016,10,06,07,55,3.20
2016,10,06,07,56,3.20
2016,10,06,07,57,3.20
2016,10,06,07,58,1.60
2016,10,06,07,59,3.20
2016,10,06,08,00,3.20
2016,10,06,08,01,4.80
2016,10,06,08,02,4.80
2016,10,06,08,03,4.80
2016,10,06,08,04,3.20
2016,10,06,08,05,3.20
2016,10,06,08,06,1.60
2016,10,06,08,07,1.60
2016,10,06,08,08,3.20
2016,10,06,08,09,3.20
2016,10,06,08,10,3.20
2016,10,06,08,11,4.80
2016,10,06,08,12,3.20
2016,10,06,08,13,3.20
2016,10,06,08,14,1.60
2016,10,06,08,15,3.20
2016,10,06,08,17,3.20
2016,10,06,08,18,3.20
2016,10,06,08,19,3.20
2016,10,06,08,20,1.60
2016,10,06,08,21,3.20
2016,10,06,08,22,1.60
2016,10,06,08,23,3.20
2016,10,06,08,24,3.20
2016,10,06,08,25,4.80
2016,10,06,08,26,4.80
2016,10,06,08,27,4.80
2016,10,06,08,28,3.20
2016,10,06,08,29,9.60
2016,10,06,08,30,9.60
2016,10,06,08,31,8.10
2016,10,06,08,32,6.40
2016,10,06,08,33,4.80
2016,10,06,08,34,4.80
2016,10,06,08,35,4.80
2016,10,06,08,36,4.80
2016,10,06,08,37,9.60
2016,10,06,08,38,9.60
2016,10,06,08,39,11.30
2016,10,06,08,40,11.30
2016,10,06,08,41,6.40
2016,10,06,08,42,6.40
2016,10,06,08,43,6.40
2016,10,06,08,44,6.40
2016,10,06,08,45,6.40
2016,10,06,08,46,4.80
2016,10,06,08,47,9.60
2016,10,06,08,48,8.10
2016,10,06,08,49,9.60
2016,10,06,08,50,11.30
2016,10,06,08,51,8.10
2016,10,06,08,52,6.40
2016,10,06,08,53,11.30
2016,10,06,08,54,9.60
2016,10,06,08,55,8.10
2016,10,06,08,56,8.10
2016,10,06,08,57,4.80
2016,10,06,08,58,6.40
2016,10,06,08,59,6.40
2016,10,06,09,00,6.40
2016,10,06,09,01,4.80
2016,10,06,09,02,6.40
2016,10,06,09,03,6.40
2016,10,06,09,04,8.10
2016,10,06,09,05,9.60
2016,10,06,09,06,8.10
2016,10,06,09,07,8.10
2016,10,06,09,08,9.60
2016,10,06,09,09,9.60
2016,10,06,09,10,9.60
2016,10,06,09,11,8.10
2016,10,06,09,12,6.40
2016,10,06,09,13,8.10
2016,10,06,09,14,6.40
2016,10,06,09,15,9.60
2016,10,06,09,16,11.30
2016,10,06,09,17,11.30
2016,10,06,09,18,11.30
2016,10,06,09,19,9.60
2016,10,06,09,20,9.60
2016,10,06,09,21,9.60
2016,10,06,09,22,6.40
2016,10,06,09,23,6.40
2016,10,06,09,24,4.80
2016,10,06,09,25,4.80
2016,10,06,09,26,4.80
2016,10,06,09,27,8.10
2016,10,06,09,28,8.10
2016,10,06,09,29,8.10
2016,10,06,09,30,6.40
2016,10,06,09,31,9.60
2016,10,06,09,32,9.60
2016,10,06,09,33,8.10
2016,10,06,09,34,8.10
2016,10,06,09,35,8.10
2016,10,06,09,36,6.40
2016,10,06,09,37,9.60
2016,10,06,09,38,11.30
2016,10,06,09,39,9.60
2016,10,06,09,40,11.30
2016,10,06,09,41,11.30
2016,10,06,09,42,9.60
2016,10,06,09,43,11.30
2016,10,06,09,44,9.60
2016,10,06,09,45,11.30
2016,10,06,09,46,9.60
2016,10,06,09,47,11.30
2016,10,06,09,48,6.40
2016,10,06,09,49,8.10
2016,10,06,09,50,8.10
2016,10,06,09,51,4.80
2016,10,06,09,52,4.80
2016,10,06,09,53,4.80
2016,10,06,09,54,4.80
2016,10,06,09,55,8.10
2016,10,06,09,56,9.60
2016,10,06,09,57,9.60
2016,10,06,09,58,9.60
2016,10,06,09,59,8.10
2016,10,06,10,00,8.10
2016,10,06,10,01,8.10
2016,10,06,10,02,6.40
2016,10,06,10,03,8.10
2016,10,06,10,04,6.40
2016,10,06,10,05,8.10
2016,10,06,10,06,9.60
2016,10,06,10,07,9.60
2016,10,06,10,08,4.80
2016,10,06,10,09,9.60
2016,10,06,10,10,6.40
2016,10,06,10,11,8.10
2016,10,06,10,12,9.60
2016,10,06,10,13,8.10
2016,10,06,10,14,11.30
2016,10,06,10,15,6.40
2016,10,06,10,16,8.10
2016,10,06,10,17,9.60
2016,10,06,10,18,8.10
2016,10,06,10,19,6.40
2016,10,06,10,20,6.40
2016,10,06,10,21,8.10
2016,10,06,10,22,11.30
2016,10,06,10,23,9.60
2016,10,06,10,24,9.60
2016,10,06,10,25,14.50
2016,10,06,10,26,9.60
2016,10,06,10,27,8.10
2016,10,06,10,28,8.10
2016,10,06,10,29,3.20
2016,10,06,10,30,3.20
2016,10,06,10,31,3.20
2016,10,06,10,32,3.20
2016,10,06,10,33,3.20
2016,10,06,10,34,6.40
2016,10,06,10,35,9.60
2016,10,06,10,36,8.10
2016,10,06,10,37,9.60
2016,10,06,10,38,9.60
2016,10,06,10,39,6.40
2016,10,06,10,40,4.80
2016,10,06,10,41,4.80
2016,10,06,10,42,3.20
2016,10,06,10,43,4.80
2016,10,06,10,44,4.80
2016,10,06,10,45,6.40
2016,10,06,10,46,4.80
2016,10,06,10,47,4.80
2016,10,06,10,48,6.40
2016,10,06,10,49,8.10
2016,10,06,10,50,8.10
2016,10,06,10,51,6.40
2016,10,06,10,52,4.80
2016,10,06,10,53,6.40
2016,10,06,10,54,9.60
2016,10,06,10,55,6.40
2016,10,06,10,56,4.80
2016,10,06,10,57,4.80
2016,10,06,10,58,8.10
2016,10,06,10,59,6.40
2016,10,06,11,00,3.20
2016,10,06,11,01,3.20
2016,10,06,11,02,4.80
2016,10,06,11,03,4.80
2016,10,06,11,04,4.80
2016,10,06,11,05,1.60
2016,10,06,11,06,3.20
2016,10,06,11,07,1.60
2016,10,06,11,08,3.20
2016,10,06,11,09,3.20
2016,10,06,11,10,4.80
2016,10,06,11,11,3.20
2016,10,06,11,12,1.60
2016,10,06,11,13,6.40
2016,10,06,11,14,4.80
2016,10,06,11,15,3.20
2016,10,06,11,16,3.20
2016,10,06,11,17,6.40
2016,10,06,11,18,4.80
2016,10,06,11,19,3.20
2016,10,06,11,20,6.40
2016,10,06,11,21,1.60
2016,10,06,11,22,6.40
2016,10,06,11,23,8.10
2016,10,06,11,24,4.80
2016,10,06,11,25,4.80
2016,10,06,11,26,1.60
2016,10,06,11,27,3.20
2016,10,06,11,28,1.60
2016,10,06,11,29,4.80
2016,10,06,11,30,3.20
2016,10,06,11,31,4.80
2016,10,06,11,32,4.80
2016,10,06,11,33,3.20
2016,10,06,11,34,4.80
2016,10,06,11,35,4.80
2016,10,06,11,36,8.10
2016,10,06,11,37,8.10
2016,10,06,11,38,9.60
2016,10,06,11,39,11.30
2016,10,06,11,40,14.50
2016,10,06,11,41,9.60
2016,10,06,11,42,8.10
2016,10,06,11,43,6.40
2016,10,06,11,44,3.20
2016,10,06,11,45,3.20
2016,10,06,11,46,6.40
2016,10,06,11,47,6.40
2016,10,06,11,48,8.10
2016,10,06,11,49,8.10
2016,10,06,11,50,4.80
2016,10,06,11,51,3.20
2016,10,06,11,52,3.20
2016,10,06,11,53,8.10
2016,10,06,11,54,6.40
2016,10,06,11,55,4.80
2016,10,06,11,56,9.60
2016,10,06,11,57,8.10
2016,10,06,11,58,8.10
2016,10,06,11,59,9.60
2016,10,06,12,00,8.10
2016,10,06,12,01,6.40
2016,10,06,12,02,6.40
2016,10,06,12,03,9.60
2016,10,06,12,04,9.60
2016,10,06,12,05,8.10
2016,10,06,12,06,9.60
2016,10,06,12,07,4.80
2016,10,06,12,08,8.10
2016,10,06,12,09,9.60
2016,10,06,12,10,6.40
2016,10,06,12,11,6.40
2016,10,06,12,12,9.60
2016,10,06,12,13,6.40
2016,10,06,12,14,9.60
2016,10,06,12,15,8.10
2016,10,06,12,16,6.40
2016,10,06,12,17,14.50
2016,10,06,12,18,12.90
2016,10,06,12,19,11.30
2016,10,06,12,20,14.50
2016,10,06,12,21,9.60
2016,10,06,12,22,8.10
2016,10,06,12,23,11.30
2016,10,06,12,24,14.50
2016,10,06,12,25,9.60
2016,10,06,12,26,14.50
2016,10,06,12,27,14.50
2016,10,06,12,28,11.30
2016,10,06,12,29,16.10
2016,10,06,12,30,6.40
2016,10,06,12,31,4.80
2016,10,06,12,32,11.30
2016,10,06,12,33,9.60
2016,10,06,12,34,8.10
2016,10,06,12,35,9.60
2016,10,06,12,36,11.30
2016,10,06,12,37,11.30
2016,10,06,12,38,14.50
2016,10,06,12,39,11.30
2016,10,06,12,40,11.30
2016,10,06,12,41,9.60
2016,10,06,12,42,11.30
2016,10,06,12,43,16.10
2016,10,06,12,44,11.30
2016,10,06,12,45,11.30
2016,10,06,12,46,16.10
2016,10,06,12,47,9.60
2016,10,06,12,48,14.50
2016,10,06,12,49,11.30
2016,10,06,12,50,11.30
2016,10,06,12,51,16.10
2016,10,06,12,52,14.50
2016,10,06,12,53,14.50
2016,10,06,12,54,16.10
2016,10,06,12,55,16.10
2016,10,06,12,56,9.60
2016,10,06,12,57,11.30
2016,10,06,12,58,9.60
2016,10,06,12,59,12.90
2016,10,06,13,00,16.10
2016,10,06,13,01,17.70
2016,10,06,13,02,16.10
2016,10,06,13,03,14.50
2016,10,06,13,04,11.30
2016,10,06,13,05,14.50
2016,10,06,13,06,9.60
2016,10,06,13,07,8.10
2016,10,06,13,08,8.10
2016,10,06,13,09,8.10
2016,10,06,13,10,6.40
2016,10,06,13,11,6.40
2016,10,06,13,12,14.50
2016,10,06,13,13,12.90
2016,10,06,13,14,9.60
2016,10,06,13,15,8.10
2016,10,06,13,16,9.60
2016,10,06,13,17,8.10
2016,10,06,13,18,9.60
2016,10,06,13,19,14.50
2016,10,06,13,20,8.10
2016,10,06,13,21,9.60
2016,10,06,13,22,6.40
2016,10,06,13,23,8.10
2016,10,06,13,24,9.60
2016,10,06,13,25,11.30
2016,10,06,13,26,8.10
2016,10,06,13,27,9.60
2016,10,06,13,28,11.30
2016,10,06,13,29,11.30
2016,10,06,13,30,16.10
2016,10,06,13,31,14.50
2016,10,06,13,32,14.50
2016,10,06,13,33,14.50
2016,10,06,13,34,8.10
2016,10,06,13,35,8.10
2016,10,06,13,36,14.50
2016,10,06,13,37,14.50
2016,10,06,13,38,11.30
2016,10,06,13,39,9.60
2016,10,06,13,40,9.60
2016,10,06,13,41,16.10
2016,10,06,13,42,14.50
2016,10,06,13,43,9.60
2016,10,06,13,44,14.50
2016,10,06,13,45,9.60
2016,10,06,13,46,11.30
2016,10,06,13,47,8.10
2016,10,06,13,48,11.30
2016,10,06,13,49,11.30
2016,10,06,13,50,9.60
2016,10,06,13,51,9.60
2016,10,06,13,52,9.60
2016,10,06,13,53,9.60
2016,10,06,13,54,6.40
2016,10,06,13,55,9.60
2016,10,06,13,56,9.60
2016,10,06,13,57,11.30
2016,10,06,13,58,14.50
2016,10,06,13,59,9.60
2016,10,06,14,00,9.60
2016,10,06,14,01,9.60
2016,10,06,14,02,9.60
2016,10,06,14,03,8.10
2016,10,06,14,04,14.50
2016,10,06,14,05,14.50
2016,10,06,14,06,9.60
2016,10,06,14,07,8.10
2016,10,06,14,08,12.90
2016,10,06,14,09,14.50
2016,10,06,14,10,9.60
2016,10,06,14,11,9.60
2016,10,06,14,12,9.60
2016,10,06,14,13,8.10
2016,10,06,14,14,9.60
2016,10,06,14,15,9.60
2016,10,06,14,16,3.20
2016,10,06,14,17,3.20
2016,10,06,14,18,4.80
2016,10,06,14,19,3.20
2016,10,06,14,20,9.60
2016,10,06,14,21,6.40
2016,10,06,14,22,6.40
2016,10,06,14,23,8.10
2016,10,06,14,24,8.10
2016,10,06,14,25,4.80
2016,10,06,14,26,6.40
2016,10,06,14,27,8.10
2016,10,06,14,28,4.80
2016,10,06,14,29,6.40
2016,10,06,14,30,6.40
2016,10,06,14,31,3.20
2016,10,06,14,32,3.20
2016,10,06,14,33,3.20
2016,10,06,14,34,3.20
2016,10,06,14,35,6.40
2016,10,06,14,36,6.40
2016,10,06,14,37,8.10
2016,10,06,14,38,3.20
2016,10,06,14,39,4.80
2016,10,06,14,40,4.80
2016,10,06,14,41,3.20
2016,10,06,14,42,8.10
2016,10,06,14,43,4.80
2016,10,06,14,44,4.80
2016,10,06,14,45,4.80
2016,10,06,14,46,6.40
2016,10,06,14,47,4.80
2016,10,06,14,48,9.60
2016,10,06,14,49,6.40
2016,10,06,14,50,3.20
2016,10,06,14,51,8.10
2016,10,06,14,52,8.10
2016,10,06,14,53,8.10
2016,10,06,14,54,6.40
2016,10,06,14,55,8.10
2016,10,06,14,56,8.10
2016,10,06,14,57,4.80
2016,10,06,14,58,3.20
2016,10,06,14,59,9.60
2016,10,06,15,00,6.40
2016,10,06,15,01,6.40
2016,10,06,15,02,4.80
2016,10,06,15,03,9.60
2016,10,06,15,04,4.80
2016,10,06,15,05,8.10
2016,10,06,15,06,6.40
2016,10,06,15,07,9.60
2016,10,06,15,08,8.10
2016,10,06,15,09,6.40
2016,10,06,15,10,8.10
2016,10,06,15,11,11.30
2016,10,06,15,12,9.60
2016,10,06,15,13,8.10
2016,10,06,15,14,8.10
2016,10,06,15,15,6.40
2016,10,06,15,16,6.40
2016,10,06,15,17,4.80
2016,10,06,15,18,6.40
2016,10,06,15,19,6.40
2016,10,06,15,20,4.80
2016,10,06,15,21,11.30
2016,10,06,15,22,4.80
2016,10,06,15,23,4.80
2016,10,06,15,24,8.10
2016,10,06,15,25,8.10
2016,10,06,15,26,4.80
2016,10,06,15,27,3.20
2016,10,06,15,28,6.40
2016,10,06,15,29,6.40
2016,10,06,15,30,4.80
2016,10,06,15,31,3.20
2016,10,06,15,32,3.20
2016,10,06,15,33,4.80
2016,10,06,15,34,6.40
2016,10,06,15,35,3.20
2016,10,06,15,36,3.20
2016,10,06,15,37,8.10
2016,10,06,15,38,8.10
2016,10,06,15,39,6.40
2016,10,06,15,40,8.10
2016,10,06,15,41,8.10
2016,10,06,15,42,6.40
2016,10,06,15,43,1.60
2016,10,06,15,44,1.60
2016,10,06,15,45,4.80
2016,10,06,15,46,4.80
2016,10,06,15,47,4.80
2016,10,06,15,48,3.20
2016,10,06,15,49,9.60
2016,10,06,15,50,8.10
2016,10,06,15,51,8.10
2016,10,06,15,52,8.10
2016,10,06,15,53,8.10
2016,10,06,15,54,4.80
2016,10,06,15,55,4.80
2016,10,06,15,56,9.60
2016,10,06,15,57,3.20
2016,10,06,15,58,4.80
2016,10,06,15,59,8.10
2016,10,06,16,00,11.30
2016,10,06,16,01,8.10
2016,10,06,16,02,6.40
2016,10,06,16,03,4.80
2016,10,06,16,04,6.40
2016,10,06,16,05,6.40
2016,10,06,16,06,8.10
2016,10,06,16,07,6.40
2016,10,06,16,08,9.60
2016,10,06,16,09,4.80
2016,10,06,16,10,8.10
2016,10,06,16,11,9.60
2016,10,06,16,12,9.60
2016,10,06,16,13,9.60
2016,10,06,16,14,8.10
2016,10,06,16,15,8.10
2016,10,06,16,16,4.80
2016,10,06,16,17,4.80
2016,10,06,16,18,8.10
2016,10,06,16,19,6.40
2016,10,06,16,20,9.60
2016,10,06,16,21,6.40
2016,10,06,16,22,9.60
2016,10,06,16,23,8.10
2016,10,06,16,24,9.60
2016,10,06,16,25,9.60
2016,10,06,16,26,6.40
2016,10,06,16,27,4.80
2016,10,06,16,28,14.50
2016,10,06,16,29,11.30
2016,10,06,16,30,8.10
2016,10,06,16,31,8.10
2016,10,06,16,32,6.40
2016,10,06,16,33,3.20
2016,10,06,16,34,11.30
2016,10,06,16,35,11.30
2016,10,06,16,36,11.30
2016,10,06,16,37,9.60
2016,10,06,16,38,8.10
2016,10,06,16,39,11.30
2016,10,06,16,40,9.60
2016,10,06,16,41,9.60
2016,10,06,16,42,8.10
2016,10,06,16,43,3.20
2016,10,06,16,44,6.40
2016,10,06,16,45,9.60
2016,10,06,16,46,8.10
2016,10,06,16,47,6.40
2016,10,06,16,48,3.20
2016,10,06,16,49,3.20
2016,10,06,16,50,4.80
2016,10,06,16,51,8.10
2016,10,06,16,52,9.60
2016,10,06,16,53,9.60
2016,10,06,16,54,8.10
2016,10,06,16,55,6.40
2016,10,06,16,56,6.40
2016,10,06,16,57,4.80
2016,10,06,16,58,8.10
2016,10,06,16,59,9.60
2016,10,06,17,00,9.60
2016,10,06,17,01,17.70
2016,10,06,17,02,9.60
2016,10,06,17,03,16.10
2016,10,06,17,04,16.10
2016,10,06,17,05,19.30
2016,10,06,17,06,12.90
2016,10,06,17,07,14.50
2016,10,06,17,08,14.50
2016,10,06,17,09,19.30
2016,10,06,17,10,16.10
2016,10,06,17,11,24.20
2016,10,06,17,12,12.90
2016,10,06,17,13,11.30
2016,10,06,17,14,8.10
2016,10,06,17,15,16.10
2016,10,06,17,16,19.30
2016,10,06,17,17,14.50
2016,10,06,17,18,17.70
2016,10,06,17,19,17.70
2016,10,06,17,20,8.10
2016,10,06,17,21,9.60
2016,10,06,17,22,14.50
2016,10,06,17,23,16.10
2016,10,06,17,24,14.50
2016,10,06,17,25,11.30
2016,10,06,17,26,9.60
2016,10,06,17,27,17.70
2016,10,06,17,28,11.30
2016,10,06,17,29,14.50
2016,10,06,17,30,11.30
2016,10,06,17,31,9.60
2016,10,06,17,32,6.40
2016,10,06,17,33,11.30
2016,10,06,17,34,11.30
2016,10,06,17,35,12.90
2016,10,06,17,36,14.50
2016,10,06,17,37,14.50
2016,10,06,17,38,19.30
2016,10,06,17,39,16.10
2016,10,06,17,40,16.10
2016,10,06,17,41,19.30
2016,10,06,17,42,16.10
2016,10,06,17,43,20.90
2016,10,06,17,44,11.30
2016,10,06,17,45,20.90
2016,10,06,17,46,16.10
2016,10,06,17,47,14.50
2016,10,06,17,48,14.50
2016,10,06,17,49,14.50
2016,10,06,17,50,16.10
2016,10,06,17,51,17.70
2016,10,06,17,52,17.70
2016,10,06,17,53,19.30
2016,10,06,17,54,27.40
2016,10,06,17,55,19.30
2016,10,06,17,56,19.30
2016,10,06,17,57,24.20
2016,10,06,17,58,17.70
2016,10,06,17,59,12.90
2016,10,06,18,00,19.30
2016,10,06,18,01,16.10
2016,10,06,18,02,12.90
2016,10,06,18,03,14.50
2016,10,06,18,04,11.30
2016,10,06,18,05,6.40
2016,10,06,18,06,17.70
2016,10,06,18,07,22.50
2016,10,06,18,08,16.10
2016,10,06,18,09,16.10
2016,10,06,18,10,6.40
2016,10,06,18,11,8.10
2016,10,06,18,12,16.10
2016,10,06,18,13,17.70
2016,10,06,18,14,11.30
2016,10,06,18,15,19.30
2016,10,06,18,16,17.70
2016,10,06,18,17,11.30
2016,10,06,18,18,17.70
2016,10,06,18,19,14.50
2016,10,06,18,20,16.10
2016,10,06,18,21,8.10
2016,10,06,18,22,17.70
2016,10,06,18,23,17.70
2016,10,06,18,24,19.30
2016,10,06,18,25,14.50
2016,10,06,18,26,22.50
2016,10,06,18,27,19.30
2016,10,06,18,28,27.40
2016,10,06,18,29,17.70
2016,10,06,18,30,22.50
2016,10,06,18,31,22.50
2016,10,06,18,32,25.70
2016,10,06,18,33,25.70
2016,10,06,18,34,22.50
2016,10,06,18,35,24.20
2016,10,06,18,36,25.70
2016,10,06,18,37,27.40
2016,10,06,18,38,22.50
2016,10,06,18,39,16.10
2016,10,06,18,40,16.10
2016,10,06,18,41,11.30
2016,10,06,18,42,19.30
2016,10,06,18,43,19.30
2016,10,06,18,44,16.10
2016,10,06,18,45,17.70
2016,10,06,18,46,17.70
2016,10,06,18,47,11.30
2016,10,06,18,48,20.90
2016,10,06,18,49,19.30
2016,10,06,18,50,11.30
2016,10,06,18,51,17.70
2016,10,06,18,52,24.20
2016,10,06,18,53,22.50
2016,10,06,18,54,19.30
2016,10,06,18,55,11.30
2016,10,06,18,56,22.50
2016,10,06,18,57,24.20
2016,10,06,18,58,27.40
2016,10,06,18,59,25.70
2016,10,06,19,00,19.30
2016,10,06,19,01,24.20
2016,10,06,19,02,32.20
2016,10,06,19,03,27.40
2016,10,06,19,04,33.80
2016,10,06,19,05,35.40
2016,10,06,19,06,35.40
2016,10,06,19,07,37.00
2016,10,06,19,08,29.00
2016,10,06,19,09,27.40
2016,10,06,19,10,37.00
2016,10,06,19,11,29.00
2016,10,06,19,12,25.70
2016,10,06,19,13,30.60
2016,10,06,19,14,29.00
2016,10,06,19,15,30.60
2016,10,06,19,16,33.80
2016,10,06,19,17,27.40
2016,10,06,19,18,33.80
2016,10,06,19,19,32.20
2016,10,06,19,20,37.00
2016,10,06,19,21,22.50
2016,10,06,19,22,29.00
2016,10,06,19,23,35.40
2016,10,06,19,24,29.00
2016,10,06,19,25,25.70
2016,10,06,19,26,29.00
2016,10,06,19,27,24.20
2016,10,06,19,28,27.40
2016,10,06,19,29,29.00
2016,10,06,19,30,29.00
2016,10,06,19,31,22.50
2016,10,06,19,32,22.50
2016,10,06,19,33,29.00
2016,10,06,19,34,40.20
2016,10,06,19,35,29.00
2016,10,06,19,36,22.50
2016,10,06,19,37,22.50
2016,10,06,19,38,27.40
2016,10,06,19,39,25.70
2016,10,06,19,40,29.00
2016,10,06,19,41,20.90
2016,10,06,19,42,17.70
2016,10,06,19,43,29.00
2016,10,06,19,44,33.80
2016,10,06,19,45,27.40
2016,10,06,19,46,33.80
2016,10,06,19,47,27.40
2016,10,06,19,48,24.20
2016,10,06,19,49,33.80
2016,10,06,19,50,30.60
2016,10,06,19,51,35.40
2016,10,06,19,52,27.40
2016,10,06,19,53,33.80
2016,10,06,19,54,32.20
2016,10,06,19,55,27.40
2016,10,06,19,56,30.60
2016,10,06,19,57,35.40
2016,10,06,19,58,30.60
2016,10,06,19,59,35.40
2016,10,06,20,00,24.20
2016,10,06,20,01,37.00
2016,10,06,20,02,27.40
2016,10,06,20,03,27.40
2016,10,06,20,04,27.40
2016,10,06,20,05,32.20
2016,10,06,20,06,32.20
2016,10,06,20,07,33.80
2016,10,06,20,08,25.70
2016,10,06,20,09,32.20
2016,10,06,20,10,38.60
2016,10,06,20,11,38.60
2016,10,06,20,12,27.40
2016,10,06,20,13,30.60
2016,10,06,20,14,29.00
2016,10,06,20,15,38.60
2016,10,06,20,16,37.00
2016,10,06,20,17,37.00
2016,10,06,20,18,38.60
2016,10,06,20,19,37.00
2016,10,06,20,20,35.40
2016,10,06,20,21,35.40
2016,10,06,20,22,33.80
2016,10,06,20,23,46.70
2016,10,06,20,24,33.80
2016,10,06,20,25,40.20
2016,10,06,20,26,32.20
2016,10,06,20,27,30.60
2016,10,06,20,28,33.80
2016,10,06,20,29,30.60
2016,10,06,20,30,32.20
2016,10,06,20,31,30.60
2016,10,06,20,32,35.40
2016,10,06,20,33,29.00
2016,10,06,20,34,33.80
2016,10,06,20,35,33.80
2016,10,06,20,36,37.00
2016,10,06,20,37,27.40
2016,10,06,20,38,33.80
2016,10,06,20,39,30.60
2016,10,06,20,40,33.80
2016,10,06,20,41,32.20
2016,10,06,20,42,32.20
2016,10,06,20,43,33.80
2016,10,06,20,44,32.20
2016,10,06,20,45,33.80
2016,10,06,20,46,38.60
2016,10,06,20,47,33.80